Location: Regona
(45.2000°N, 9.8167°E)
Time: 18:15:02
(UTC+00:00)

IRS-1D - Pass Details

Date: 07 June 2020
Orbit: 740 x 816 km, 98.6° (Epoch: 07 July)

Event Time Altitude Azimuth Distance (km) Brightness Sun altitude
Rises 01:06:28 0° 19° (NNE) 3,328 8.5 -17.8°
Reaches altitude 10° 01:08:56 10° 25° (NNE) 2,383 7.4 -17.6°
Maximum altitude 01:13:59 46° 99° (E) 1,050 4.3 -17.2°
Enters shadow 01:17:31 18° 165° (SSE) 1,816 5.0 -16.9°
